Date,TemperatureHighF,TemperatureAvgF,TemperatureLowF,DewpointHighF,DewpointAvgF,DewpointLowF,HumidityHigh,HumidityAvg,HumidityLow,PressureMaxIn,PressureMinIn,WindSpeedMaxMPH,WindSpeedAvgMPH,GustSpeedMaxMPH,PrecipitationSumIn
2013-2-1,38.8,32.2,24.6,27.9,13.0,3.8,72,47,25,30.37,29.88,12,2,17,2.16
2013-2-2,44.2,32.5,19.6,31.2,15.5,7.7,78,51,33,30.38,30.03,7,0,7,3.60
2013-2-3,52.5,39.4,30.9,31.7,27.3,20.9,89,64,41,30.03,29.86,12,0,12,4.32
2013-2-4,50.5,37.9,25.9,28.6,23.4,19.5,79,57,38,30.15,30.00,6,0,6,4.32
2013-2-5,60.6,44.9,33.8,36.1,31.0,25.9,77,60,37,30.00,29.91,57,0,57,0.72
2013-2-6,60.1,43.6,29.8,37.3,27.4,23.3,89,58,27,30.27,29.99,10,1,10,2.88
2013-2-7,43.5,38.5,35.8,35.7,31.5,24.1,93,77,56,30.33,30.05,8,1,8,1.00
2013-2-8,58.5,43.8,35.2,47.4,35.2,25.8,94,74,41,30.10,29.86,12,3,12,0.15
2013-2-9,54.0,40.0,28.4,26.1,21.7,15.8,76,51,24,30.35,30.09,12,1,12,2.88
2013-2-10,54.9,41.4,27.3,38.1,24.9,20.4,81,56,29,30.47,30.19,9,1,9,0.15
2013-2-11,55.8,48.4,41.7,53.6,45.5,38.1,95,90,81,30.19,29.96,3,0,4,0.06
2013-2-12,60.1,49.9,41.2,48.2,33.2,25.4,95,56,28,30.12,29.94,10,1,10,0.72
2013-2-13,50.2,44.8,35.4,46.2,40.4,31.4,91,85,63,29.98,29.66,8,0,8,0.28
2013-2-14,54.3,41.1,29.8,33.9,31.0,26.7,89,69,45,30.07,29.88,9,0,9,2.16
2013-2-15,62.4,44.9,29.5,40.2,32.2,26.5,90,65,34,30.11,29.94,17,1,17,0.72
2013-2-16,42.3,36.8,28.6,32.4,26.9,13.3,86,68,44,30.00,29.85,12,2,12,4.32
2013-2-17,39.4,30.1,23.5,15.5,10.0,6.1,62,44,28,30.26,29.97,16,3,16,2.88
2013-2-18,55.2,36.7,19.6,24.8,19.5,12.4,76,52,30,30.38,30.20,9,1,10,1.89
2013-2-19,48.0,39.8,35.2,42.6,32.2,22.9,90,75,54,30.22,29.88,57,0,57,0.22
2013-2-20,55.2,40.7,26.2,22.8,16.6,10.3,72,41,18,30.15,30.01,10,1,10,2.52
2013-2-21,55.8,41.7,25.5,23.7,16.3,10.7,64,38,21,30.27,30.11,7,1,7,2.52
2013-2-22,43.7,36.3,34.2,34.4,31.6,23.2,91,83,45,30.33,30.14,5,0,5,0.46
2013-2-23,48.2,39.9,34.3,42.5,37.1,32.4,94,90,80,30.16,29.84,6,0,6,0.25
2013-2-24,61.3,49.2,39.6,42.9,33.3,21.9,94,61,27,30.06,29.83,9,2,9,1.26
2013-2-25,44.8,38.9,34.2,25.1,23.3,21.4,64,54,44,30.23,30.06,7,1,7,1.89
2013-2-26,39.4,36.1,32.2,37.8,32.3,23.3,94,87,59,30.15,29.61,13,1,13,1.17
2013-2-27,58.8,46.0,37.0,41.8,37.5,35.3,94,75,45,29.81,29.66,10,0,10,0.00
2013-2-28,50.9,41.8,33.3,37.0,28.3,24.5,82,60,40,29.90,29.73,9,1,10,0.00